Starlink 31428

operational
NORAD ID: 59367 Int'l Des: 2024-060 Owner: SPXS Country: US Constellation: starlink
LEOCIRCULAR

关于 Starlink 31428

正在加载描述...

实时位置

正在加载3D地球...

即将过境

高度历史

Altitude vs Time

uPlot chart will show altitude changes over time

两行轨道根数

1 59367U 24060V 25259.42615793 -.00003255 00000-0 -10881-3 0 9990
2 59367 43.0005 163.8158 0000892 326.3035 33.7760 15.27578166 83417
Epoch: Sep 16, 2025 • Age: 11 hours

当前状态

高度 482.4 km
速度 7.63 km/s
星下点 -0.51°S, 153.53°W
发射日期 Mar 31, 2024
运行时间 1.4 years
类型 internet

技术详情

分类 Payload
质量 730.00 kg
干质量 700.00 kg
总质量 730.00 kg
长度 0.30 m
直径 4.10 m
跨度 29.00 m
形状 Box + pan
制造商 SPXS
平台类型 Starlink V2M
阶段状态 In Orbit
所有者/国家 SPXS/US

大型星座

Loading constellations...